Morrisville, NC

12:26 PM EST on December 08, 2016 (GMT -0500)
Raleigh-Durham International

Weather History for KRDU - March, 2013

Change the Weather History Date:

Sunday, March 24, 2013

  Actual Average Record
Temperature  
Mean Temperature 39 °F 54 °F  
Max Temperature 43 °F 66 °F 88 °F (1929)
Min Temperature 34 °F 42 °F 23 °F (1971)
Degree Days  
Heating Degree Days 26 11  
Month to date heating degree days 481 352  
Since 1 July heating degree days 2927 2924  
Cooling Degree Days 0 0  
Month to date cooling degree days 0 0  
Year to date cooling degree days 2 1  
Moisture  
Dew Point 34 °F    
Average Humidity 77    
Maximum Humidity 92    
Minimum Humidity 62    
Precipitation  
Precipitation 0.73 in 0.12 in 1.54 in (1952)
Month to date precipitation 2.08 3.19  
Year to date precipitation 9.26 9.92  
Snow  
Snow 0.00 in 0.10 in 7.30 in (1983)
Month to date snowfall 0.0 0.5  
Since 1 July snowfall 1.7 6.0  
Snow Depth 0.00 in    
Sea Level Pressure  
Sea Level Pressure 29.72 in    
Wind  
Wind Speed 8 mph (NE)    
Max Wind Speed 18 mph    
Max Gust Speed 26 mph    
Visibility 7 miles    
Events Rain    
T = Trace of Precipitation, MM = Missing Value Source: NWS Daily Summary

Daily Weather History Graph

Daily Weather History Graph

Search for Another Location

Airport or City:

Trip Planner

Search our weather history database for the weather conditions in past years. The results will help you decide how hot, cold, wet, or windy it might be!

Date:

Astronomy

Mar. 24, 2013 Rise Set
Actual Time 7:12 AM EDT 7:30 PM EDT
Civil Twilight 6:47 AM EDT 7:56 PM EDT
Nautical Twilight 6:17 AM EDT 8:26 PM EDT
Astronomical Twilight 5:46 AM EDT 8:56 PM EDT
Moon 5:00 PM EDT (3/24) 5:17 AM EDT (3/24)
Length of Visible Light 13h 09m
Length of Day
12h 17m
Waxing Gibbous, 91% of the Moon is Illuminated
Mar 24
Waxing Gibbous
Mar 27
Full
Apr 3
Last Quarter
Apr 10
New
Apr 18
First Quarter

Hourly Weather History & Observations

Time (EDT) Temp. Windchill Dew Point Humidity Pressure Visibility Wind Dir Wind Speed Gust Speed Precip Events Conditions
12:51 AM 37.0 °F - 28.0 °F 70% 29.92 in 10.0 mi Calm Calm - N/A   Scattered Clouds
1:51 AM 36.0 °F - 28.0 °F 73% 29.91 in 10.0 mi Calm Calm - N/A   Mostly Cloudy
2:51 AM 37.0 °F - 30.0 °F 76% 29.91 in 10.0 mi Calm Calm - N/A   Mostly Cloudy
3:51 AM 37.9 °F - 30.9 °F 76% 29.93 in 10.0 mi Calm Calm - N/A   Overcast
4:51 AM 39.0 °F - 32.0 °F 76% 29.89 in 10.0 mi Calm Calm - N/A   Overcast
5:51 AM 39.9 °F - 32.0 °F 73% 29.88 in 10.0 mi Calm Calm - N/A   Overcast
6:51 AM 43.0 °F 39.5 °F 30.0 °F 60% 29.86 in 10.0 mi ENE 5.8 mph - N/A   Overcast
7:51 AM 41.0 °F 36.4 °F 32.0 °F 70% 29.83 in 10.0 mi ENE 6.9 mph - 0.00 in Rain Light Rain
8:51 AM 39.9 °F 33.9 °F 34.0 °F 79% 29.82 in 5.0 mi East 9.2 mph - 0.03 in Rain Light Rain
9:51 AM 39.9 °F 33.9 °F 34.0 °F 79% 29.77 in 8.0 mi ENE 9.2 mph - 0.05 in Rain Light Rain
10:51 AM 39.0 °F 30.6 °F 35.1 °F 86% 29.80 in 2.0 mi NE 15.0 mph 19.6 mph 0.07 in Rain Light Rain
11:14 AM 39.2 °F 30.5 °F 35.6 °F 87% 29.75 in 6.0 mi NE 16.1 mph 26.5 mph 0.03 in Rain Light Rain
11:51 AM 39.9 °F 32.1 °F 36.0 °F 86% 29.73 in 10.0 mi ENE 13.8 mph - 0.03 in   Overcast
12:13 PM 39.2 °F 31.6 °F 35.6 °F 87% 29.70 in 3.0 mi ENE 12.7 mph - 0.00 in Rain Light Rain
12:39 PM 39.2 °F 33.0 °F 35.6 °F 87% 29.69 in 1.5 mi NE 9.2 mph 19.6 mph 0.00 in Rain Light Rain
12:51 PM 39.9 °F 32.1 °F 37.0 °F 89% 29.69 in 1.5 mi ENE 13.8 mph 19.6 mph 0.01 in Rain Light Rain
1:17 PM 39.2 °F 30.8 °F 37.4 °F 93% 29.66 in 1.5 mi NNE 15.0 mph - 0.05 in Rain Light Rain
1:28 PM 39.2 °F 31.2 °F 35.6 °F 87% 29.64 in 1.0 mi NNE 13.8 mph 23.0 mph 0.07 in Rain Light Rain
1:44 PM 39.2 °F 30.5 °F 35.6 °F 87% 29.64 in 1.5 mi NE 16.1 mph 21.9 mph 0.15 in Rain Light Rain
1:51 PM 39.0 °F 30.6 °F 36.0 °F 89% 29.64 in 1.5 mi NE 15.0 mph 21.9 mph 0.17 in Rain Light Rain
2:51 PM 39.0 °F 31.0 °F 36.0 °F 89% 29.58 in 1.5 mi ENE 13.8 mph - 0.20 in Rain Light Rain
3:49 PM 39.2 °F 33.6 °F 37.4 °F 93% 29.61 in 1.5 mi North 8.1 mph - 0.09 in Rain Light Rain
3:51 PM 39.0 °F 34.0 °F 36.0 °F 89% 29.62 in 1.5 mi NNE 6.9 mph - 0.10 in Rain Light Rain
4:51 PM 39.0 °F 32.3 °F 36.0 °F 89% 29.64 in 1.5 mi North 10.4 mph - 0.02 in Rain Light Rain
5:51 PM 37.9 °F 30.5 °F 36.0 °F 93% 29.62 in 1.5 mi NE 11.5 mph 18.4 mph 0.05 in   Overcast
6:23 PM 37.4 °F 29.3 °F 35.6 °F 93% 29.59 in 7.0 mi NE 12.7 mph 19.6 mph N/A   Overcast
6:51 PM 37.9 °F 30.0 °F 35.1 °F 89% 29.59 in 10.0 mi ENE 12.7 mph 24.2 mph N/A   Overcast
7:27 PM 37.4 °F 28.9 °F 33.8 °F 87% 29.59 in 10.0 mi ENE 13.8 mph - N/A   Overcast
7:51 PM 37.0 °F 28.9 °F 34.0 °F 89% 29.59 in 10.0 mi NE 12.7 mph 24.2 mph N/A   Overcast
8:34 PM 37.4 °F 32.8 °F 33.8 °F 87% 29.61 in 10.0 mi NE 5.8 mph - N/A   Overcast
8:51 PM 37.0 °F 32.4 °F 33.1 °F 86% 29.63 in 10.0 mi NE 5.8 mph 16.1 mph N/A   Overcast
9:51 PM 37.0 °F 31.6 °F 33.1 °F 86% 29.64 in 10.0 mi NE 6.9 mph - N/A   Overcast
10:51 PM 37.0 °F 33.3 °F 33.1 °F 86% 29.64 in 10.0 mi NNE 4.6 mph - N/A   Overcast
11:51 PM 36.0 °F 31.1 °F 33.1 °F 89% 29.60 in 10.0 mi ENE 5.8 mph - N/A   Overcast